05.05.2024;22:00;20
05.05.2024;21:00;38
05.05.2024;20:00;58
05.05.2024;19:00;62
05.05.2024;18:00;70
05.05.2024;17:00;71
05.05.2024;16:00;68
05.05.2024;15:00;68
05.05.2024;14:00;66
05.05.2024;13:00;63
05.05.2024;12:00;62
05.05.2024;11:00;61
05.05.2024;10:00;48
05.05.2024;09:00;38
05.05.2024;08:00;26
05.05.2024;07:00;28
05.05.2024;06:00;10
05.05.2024;05:00;18
05.05.2024;04:00;37
05.05.2024;03:00;21
05.05.2024;02:00;31
05.05.2024;01:00;23
05.05.2024;00:00;19
04.05.2024;23:00;58
04.05.2024;22:00;62
04.05.2024;21:00;78
04.05.2024;20:00;89
04.05.2024;19:00;97
04.05.2024;18:00;99
04.05.2024;17:00;94
04.05.2024;16:00;91
04.05.2024;15:00;91
04.05.2024;14:00;89
04.05.2024;13:00;85
04.05.2024;12:00;80
04.05.2024;11:00;74
04.05.2024;10:00;29
04.05.2024;09:00;11
04.05.2024;08:00;7
04.05.2024;07:00;8
04.05.2024;06:00;6
04.05.2024;05:00;5
04.05.2024;04:00;6
04.05.2024;03:00;10
04.05.2024;02:00;16
04.05.2024;01:00;23
04.05.2024;00:00;38
03.05.2024;23:00;42
